Weather History for KNRB - May, 2014

Change the Weather History Date:

Friday, May 16, 2014

  Actual Average Record
Temperature  
Mean Temperature 68 °F -  
Max Temperature 79 °F 81 °F 88 °F (2001)
Min Temperature 57 °F 66 °F 57 °F (2014)
Cooling Degree Days 3    
Growing Degree Days 18 (Base 50)    
Moisture  
Dew Point 48 °F    
Average Humidity 54    
Maximum Humidity 81    
Minimum Humidity 24    
Precipitation  
Precipitation 0.00 in - - ()
Sea Level Pressure  
Sea Level Pressure 30.05 in    
Wind  
Wind Speed 7 mph (NW)    
Max Wind Speed 10 mph    
Max Gust Speed 20 mph    
Visibility 10 miles    
Events      
Averages and records for this station are not official NWS values.
T = Trace of Precipitation, MM = Missing Value Source: NWS Daily Summary

Daily Weather History Graph

Daily Weather History Graph

Search for Another Location

Airport or City:

Trip Planner

Search our weather history database for the weather conditions in past years. The results will help you decide how hot, cold, wet, or windy it might be!

Date:

Astronomy

May. 16, 2014 Rise Set
Actual Time 6:30 AM EDT 8:13 PM EDT
Civil Twilight 6:04 AM EDT 8:39 PM EDT
Nautical Twilight 5:32 AM EDT 9:11 PM EDT
Astronomical Twilight 4:59 AM EDT 9:45 PM EDT
Moon 10:19 PM EDT (5/16) 8:11 AM EDT (5/16)
Length of Visible Light 14h 35m
Length of Day
13h 42m
Waning Gibbous, 95% of the Moon is Illuminated
May 16
Waning Gibbous
May 21
Last Quarter
May 28
New
Jun 5
First Quarter
Jun 13
Full

Hourly Weather History & Observations

Time (EDT) Temp. Dew Point Humidity Pressure Visibility Wind Dir Wind Speed Gust Speed Precip Events Conditions
12:52 AM 66.9 °F 61.0 °F 81% 29.99 in 10.0 mi Variable 5.8 mph 16.1 mph N/A   Overcast
1:52 AM 66.0 °F 57.9 °F 75% 29.99 in 10.0 mi Variable 5.8 mph - N/A   Overcast
2:52 AM 64.0 °F 55.0 °F 73% 29.99 in 10.0 mi WNW 9.2 mph - N/A   Scattered Clouds
3:52 AM 62.1 °F 53.1 °F 72% 29.99 in 10.0 mi NW 9.2 mph - N/A   Clear
4:52 AM 60.1 °F 51.1 °F 72% 30.01 in 10.0 mi Variable 4.6 mph - N/A   Clear
5:52 AM 57.9 °F 50.0 °F 75% 30.03 in 10.0 mi NW 5.8 mph - N/A   Clear
6:52 AM 57.0 °F 48.9 °F 74% 30.04 in 10.0 mi Variable 6.9 mph - N/A   Clear
7:03 AM 57.9 °F 48.9 °F 72% 30.05 in 10.0 mi Variable 6.9 mph - N/A   Partly Cloudy
7:52 AM 59.0 °F 48.9 °F 69% 30.06 in 10.0 mi WNW 8.1 mph - N/A   Partly Cloudy
8:52 AM 61.0 °F 46.0 °F 58% 30.07 in 10.0 mi NW 8.1 mph 18.4 mph N/A   Partly Cloudy
9:52 AM 64.9 °F 45.0 °F 48% 30.07 in 10.0 mi NNW 10.4 mph - N/A   Clear
10:52 AM 68.0 °F 44.1 °F 42% 30.09 in 10.0 mi NNW 10.4 mph - N/A   Clear
11:52 AM 71.1 °F 44.1 °F 38% 30.09 in 10.0 mi West 8.1 mph - N/A   Partly Cloudy
12:52 PM 73.0 °F 39.9 °F 30% 30.08 in 10.0 mi NW 10.4 mph 18.4 mph N/A   Partly Cloudy
1:52 PM 75.9 °F 41.0 °F 29% 30.08 in 10.0 mi WNW 8.1 mph 18.4 mph N/A   Partly Cloudy
2:52 PM 77.0 °F 43.0 °F 30% 30.06 in 10.0 mi NW 5.8 mph 17.3 mph N/A   Partly Cloudy
3:52 PM 77.0 °F 41.0 °F 28% 30.05 in 10.0 mi WNW 9.2 mph 16.1 mph N/A   Partly Cloudy
4:52 PM 79.0 °F 43.0 °F 28% 30.03 in 10.0 mi NW 8.1 mph - N/A   Clear
5:52 PM 78.1 °F 37.9 °F 24% 30.03 in 10.0 mi NW 9.2 mph 19.6 mph N/A   Clear
6:52 PM 77.0 °F 42.1 °F 29% 30.04 in 10.0 mi Variable 6.9 mph - N/A   Clear
7:52 PM 75.0 °F 46.0 °F 36% 30.06 in 10.0 mi Variable 3.5 mph - N/A   Clear
8:52 PM 70.0 °F 53.1 °F 55% 30.08 in 10.0 mi Calm Calm - N/A   Clear
9:52 PM 64.9 °F 55.0 °F 70% 30.10 in 10.0 mi Calm Calm - N/A   Clear
10:52 PM 64.0 °F 55.9 °F 75% 30.12 in 10.0 mi WNW 3.5 mph - N/A   Clear
11:52 PM 64.0 °F 57.0 °F 78% 30.13 in 10.0 mi SW 3.5 mph - N/A   Clear